Lid_Strength_Index
-0 0 2 4 9 12 14 12 11 10 10 9 7 8 8 8 8 11 5 2 1 0 -0 -1 -2 -1 -1 -1 -1 -2 -1 -1 -1 -1 -1 -2 -2 -2 -2 -2 -1 -1 -1 -2 -2 -2 -1 -1 -1
2 1 4 7 12 14 13 12 11 10 9 8 7 8 8 9 6 6 6 2 2 1 -0 -0 -2 -1 -1 -1 -1 -1 -1 -1 -1 -1 -2 -2 -1 -1 -2 -2 -2 -2 -2 -1 -2 -2 -2 -2 -1
2 2 7 10 12 14 14 12 11 10 9 9 10 9 9 8 7 6 5 2 2 2 1 -1 -2 -2 -2 -2 -2 -2 -2 -1 -1 -2 -2 -2 -2 -2 -2 -1 -1 -1 -2 -2 -2 -2 -2 -1 -1
5 6 8 13 14 12 13 12 10 10 10 10 9 11 9 7 6 6 4 3 3 2 1 -1 -2 -2 -2 -2 -2 -2 -2 -2 -1 -1 -1 -1 -0 0 1 1 1 1 0 -1 -1 -0 0 0 -0
6 8 11 13 13 12 12 10 10 10 10 10 10 11 10 8 7 6 5 3 4 4 3 1 -1 -1 -1 -0 -0 -0 -0 -0 0 1 1 2 2 2 2 2 2 2 1 1 1 1 1 1 1
9 9 13 14 13 11 11 9 10 10 10 10 11 11 10 8 8 8 7 5 4 4 4 3 0 -0 0 1 1 1 1 1 2 2 2 2 3 3 3 3 2 3 2 2 2 2 2 2 2
8 10 12 12 12 11 11 10 11 10 10 10 9 11 11 10 9 9 9 7 6 5 5 5 5 3 2 1 2 2 2 3 3 3 4 4 4 4 5 4 3 3 3 3 3 3 3 3 3
9 10 13 13 12 11 10 10 10 10 10 9 8 11 11 9 8 9 10 10 9 7 7 7 7 7 7 6 2 3 3 4 5 5 5 5 5 5 6 6 5 4 4 4 4 4 4 4 4
7 12 14 12 11 11 10 11 10 10 10 10 8 10 9 8 9 10 12 11 11 9 9 9 8 8 9 8 6 4 4 5 6 6 6 6 10 9 8 6 6 5 5 5 5 5 6 6 6
9 12 11 10 11 11 10 10 10 11 11 11 10 10 9 9 10 10 12 12 12 11 11 10 10 9 9 8 8 9 8 9 9 9 10 9 10 9 9 7 7 7 7 7 7 6 7 8 10
10 11 9 9 9 10 10 11 9 10 11 10 10 10 10 10 10 10 11 11 11 11 11 10 10 10 10 11 10 11 10 11 10 11 10 10 11 11 11 12 12 12 10 12 11 11 11 12 11
10 8 8 8 8 9 10 9 10 10 9 8 9 9 9 10 10 10 11 11 11 11 11 11 10 10 11 11 10 11 11 11 11 11 11 11 12 13 13 13 13 13 13 14 13 13 12 12 12
10 9 8 8 9 9 9 10 10 10 9 8 8 9 10 10 10 10 10 10 10 11 11 11 11 11 11 11 11 11 11 11 12 12 12 12 13 14 13 14 14 14 14 14 14 14 13 13 12
10 9 9 9 8 9 9 10 10 9 8 9 8 9 10 9 9 10 11 10 10 10 11 11 11 11 11 11 11 11 12 12 12 13 13 12 13 14 14 14 14 14 15 14 15 14 14 14 13
9 11 10 9 9 10 9 11 11 8 9 9 9 9 9 9 9 9 9 10 9 9 10 11 11 11 11 12 12 11 12 12 13 13 13 13 14 14 15 15 15 15 15 15 15 15 14 15 14
12 13 14 11 10 10 10 13 10 9 10 10 9 10 10 9 9 8 9 9 9 10 11 11 10 11 11 12 12 12 12 13 13 13 14 14 14 14 15 15 15 15 15 15 16 16 15 16 15
14 16 14 12 10 11 11 13 10 9 10 10 11 11 10 9 10 8 9 9 9 9 11 12 11 12 12 13 12 13 13 13 14 14 14 15 14 14 15 16 16 15 16 16 16 16 16 16 16
16 15 14 14 12 12 13 12 10 10 11 11 11 11 11 9 8 9 9 9 9 10 11 12 12 13 13 13 13 14 14 14 15 15 15 15 15 15 16 16 16 16 16 16 16 17 16 16 16
14 15 15 12 10 11 11 12 11 10 11 11 11 10 9 9 9 10 9 9 10 12 13 13 13 13 13 13 14 15 14 15 16 15 15 15 15 15 16 16 16 16 17 17 16 16 17 17 16
13 14 14 12 11 12 13 13 11 11 11 10 10 10 9 9 10 10 11 12 12 13 13 13 13 13 13 13 13 15 15 16 16 15 15 15 15 15 16 16 17 17 17 17 17 17 17 17 17
13 14 14 14 13 13 14 15 13 12 11 10 9 9 9 9 11 12 12 12 12 13 13 13 13 13 13 13 14 16 16 16 17 16 16 16 16 16 16 17 17 17 17 18 18 18 18 18 18
15 12 13 14 16 17 15 19 16 14 13 12 10 10 10 12 12 12 12 13 13 13 13 13 13 13 13 14 14 16 15 16 15 15 15 16 16 16 16 17 17 18 17 18 18 17 18 18 19
14 14 14 15 16 18 17 18 17 15 15 13 11 11 10 11 12 12 12 11 12 13 13 13 14 14 14 14 14 15 16 16 18 17 16 17 17 17 17 17 18 18 18 18 18 18 19 18 19
14 15 16 17 18 20 18 17 18 17 14 14 12 11 10 10 12 12 12 13 13 14 14 14 14 14 13 14 14 15 16 17 18 17 17 17 17 17 18 18 18 18 18 18 18 18 19 19 19
15 17 21 22 22 20 16 18 16 15 14 13 12 12 11 12 12 13 13 13 13 14 14 14 14 14 14 14 15 15 16 16 17 17 16 18 18 19 19 19 19 19 19 19 19 19 19 19 20
16 15 19 24 21 19 19 21 17 13 12 12 12 11 13 13 13 13 13 13 13 13 14 13 14 14 14 14 15 15 16 16 16 16 16 17 17 18 19 19 19 20 19 20 20 20 20 20 19
16 17 14 18 25 22 18 17 15 13 13 13 13 14 13 13 13 13 13 13 13 13 13 13 14 14 15 15 15 15 16 16 16 17 17 17 18 18 19 19 20 20 20 20 20 20 20 20 19
15 15 18 19 24 25 18 20 17 14 13 12 14 14 13 12 12 13 13 13 13 12 13 13 13 14 14 15 15 15 16 15 16 17 18 18 18 19 19 20 20 20 20 20 21 21 20 21 20
17 17 16 16 18 19 20 18 15 15 14 13 14 13 13 12 12 12 12 12 12 13 14 14 14 14 15 15 15 16 16 16 17 17 18 19 19 19 20 20 20 20 21 21 21 21 21 21 21
15 15 15 17 19 19 17 17 11 13 13 13 13 13 14 12 12 12 12 12 13 14 14 14 14 14 14 15 16 16 17 18 18 18 19 19 19 20 20 20 20 21 21 21 22 22 22 22 22